User: anonymous   Login
Location: Unspecified
(0.0000°N, 0.0000°E)
Time: 04:03:50
(UTC+00:00)
Language:

SSETI-EXPRESS DEB - Orbit

View from above orbital plane
View from above orbital plane
View from above satellite
View from above satellite

Ground track
Ground track

The orbit data is extracted from the following two-line orbital elements,

1 28897U 05043H   18022.40712663 +.00000142 +00000-0 +35766-4 0  9996
2 28897 097.8836 180.4154 0016566 161.7395 226.5427 14.63945741644945
Epoch (UTC): 22 January 2018 09:46:15
Eccentricity: 0.0016566
inclination: 97.8836°
perigee height: 669 km
apogee height: 692 km
right ascension of ascending node: 180.4154°
argument of perigee: 161.7395°
revolutions per day: 14.63945741
mean anomaly at epoch: 226.5427°
orbit number at epoch: 64494

The dashed part of the orbit path shows where the satellite is in the earth's shadow,  

DLR